Home > Weather > Salinas > Past weeks

Flag for USA Past Weather in Salinas, California, USA — Yesterday and Last 2 Weeks

Now
59 °F

Low clouds.


Feels Like: 57 °F
Forecast: 54 / 71 °F
Wind: 9 mph from Northwest

Location: Salinas Municipal Airport

Current Time: Jul 29, 2016 at 8:37:13 PM

Latest Report: Jul 29, 2016 at 7:53 PM


Visibility: 10 mi

Pressure: 29.85 "Hg

Humidity: 81%

Dew Point: 53 °F

Location of SalinasLocation

Past Weather in Salinas — Graph

°F

Salinas Temperature Yesterday

Maximum temperature yesterday: 71 °F (at 12:53 PM)
Minimum temperature yesterday: 54 °F (at 12:53 AM)
Average temperature yesterday: 59 °F

High & Low Weather Summary for the Past Weeks

 TemperatureHumidityPressure
High75 °F (Jul 23, 11:53 AM)97% (Jul 26, 1:53 AM)30.14 "Hg (Jul 26, 1:53 AM)
Low52 °F (Jul 24, 5:53 AM)45% (Jul 23, 11:53 AM)29.84 "Hg (Jul 29, 6:53 PM)
Average61 °F75%30.00 "Hg
* Reported Jul 14 6:00 PM — Jul 29 6:53 PM, Salinas, Weather by CustomWeather, © 2016

Note: Actual official high and low records may vary slightly from our data, if they occured in-between our weather recording intervals... More about our weather records

Advertising

Salinas Weather History for the Previous 24 Hours

Scroll right to see more
 ConditionsComfort  
Time TempWeatherWind HumidityBarometerVisibility
6:53 PM
Fri, Jul 29
60 °FLow clouds.12 mph80%29.84 "Hg10 mi
5:53 PM61 °FOvercast.14 mph78%29.85 "Hg10 mi
4:53 PM62 °FSunny.13 mph75%29.86 "Hg10 mi
3:53 PM64 °FSunny.15 mph70%29.86 "Hg10 mi
2:53 PM66 °FSunny.13 mph63%29.87 "Hg10 mi
1:53 PM68 °FSunny.12 mph59%29.88 "Hg10 mi
12:53 PM68 °FSunny.14 mph61%29.88 "Hg10 mi
11:53 AM71 °FSunny.12 mph57%29.88 "Hg10 mi
10:53 AM67 °FSunny.3 mph63%29.90 "Hg10 mi
10:00 AM62 °FScattered clouds.No wind75%29.87 "Hg10 mi
9:53 AM61 °FPartly sunny.No wind78%29.90 "Hg10 mi
8:53 AM57 °FFog.3 mph87%29.91 "Hg5 mi
7:53 AM55 °FLow clouds.3 mph90%29.91 "Hg10 mi
6:53 AM55 °FLow clouds.No wind90%29.91 "Hg8 mi
5:53 AM55 °FLow clouds.No wind87%29.90 "Hg10 mi
4:53 AM55 °FLow clouds.No wind90%29.89 "Hg10 mi
3:53 AM54 °FLow clouds.3 mph90%29.89 "Hg10 mi
2:53 AM54 °FFog.3 mph97%29.90 "Hg5 mi
1:53 AM55 °FFog.5 mph93%29.90 "Hg4 mi
12:53 AM55 °FFog.6 mph93%29.91 "Hg5 mi
11:53 PM
Thu, Jul 28
55 °FFog.5 mph93%29.92 "Hg2 mi
10:53 PM56 °FFog.8 mph90%29.92 "Hg2 mi
9:53 PM56 °FFog.9 mph90%29.92 "Hg2 mi
8:53 PM57 °FLow clouds.9 mph87%29.90 "Hg9 mi
Weather by CustomWeather, © 2016

See weather overviewHow to use our weather pages